#datetime,building,power
2021-12-06T00:01:00,pth,4.80
2021-12-06T00:03:00,pth,4.80
2021-12-06T00:05:00,pth,6.04
2021-12-06T00:07:00,pth,4.80
2021-12-06T00:09:00,pth,3.57
2021-12-06T00:11:00,pth,4.80
2021-12-06T00:13:00,pth,4.80
2021-12-06T00:15:00,pth,4.80
2021-12-06T00:17:00,pth,5.98
2021-12-06T00:18:00,pth,2.40
2021-12-06T00:19:00,pth,2.40
2021-12-06T00:20:00,pth,2.40
2021-12-06T00:22:00,pth,4.80
2021-12-06T00:24:00,pth,4.80
2021-12-06T00:25:00,pth,2.40
2021-12-06T00:26:00,pth,2.40
2021-12-06T00:28:00,pth,5.98
2021-12-06T00:30:00,pth,4.80
2021-12-06T00:31:00,pth,1.23
2021-12-06T00:33:00,pth,4.80
2021-12-06T00:35:00,pth,3.57
2021-12-06T00:36:00,pth,2.40
2021-12-06T00:37:00,pth,2.40
2021-12-06T00:39:00,pth,3.57
2021-12-06T00:40:00,pth,2.40
2021-12-06T00:42:00,pth,4.80
2021-12-06T00:44:00,pth,3.63
2021-12-06T00:46:00,pth,5.98
2021-12-06T00:48:00,pth,4.80
2021-12-06T00:50:00,pth,4.80
2021-12-06T00:51:00,pth,2.40
2021-12-06T00:53:00,pth,4.80
2021-12-06T00:55:00,pth,5.98
2021-12-06T00:57:00,pth,4.80
2021-12-06T00:59:00,pth,3.63
2021-12-06T01:01:00,pth,4.75
2021-12-06T01:03:00,pth,3.63
2021-12-06T01:04:00,pth,2.40
2021-12-06T01:06:00,pth,3.57
2021-12-06T01:08:00,pth,4.80
2021-12-06T01:09:00,pth,1.23
2021-12-06T01:10:00,pth,2.40
2021-12-06T01:12:00,pth,4.80
2021-12-06T01:13:00,pth,2.40
2021-12-06T01:15:00,pth,3.57
2021-12-06T01:17:00,pth,4.80
2021-12-06T01:19:00,pth,3.57
2021-12-06T01:21:00,pth,4.80
2021-12-06T01:23:00,pth,3.63
2021-12-06T01:25:00,pth,4.80
2021-12-06T01:27:00,pth,3.57
2021-12-06T01:29:00,pth,4.80
2021-12-06T01:31:00,pth,3.57
2021-12-06T01:32:00,pth,2.40
2021-12-06T01:33:00,pth,2.40
2021-12-06T01:35:00,pth,4.80
2021-12-06T01:36:00,pth,1.23
2021-12-06T01:38:00,pth,4.80
2021-12-06T01:40:00,pth,4.80
2021-12-06T01:41:00,pth,1.17
2021-12-06T01:43:00,pth,4.80
2021-12-06T01:45:00,pth,3.57
2021-12-06T01:46:00,pth,2.40
2021-12-06T01:48:00,pth,3.63
2021-12-06T01:50:00,pth,4.80
2021-12-06T01:52:00,pth,3.57
2021-12-06T01:54:00,pth,3.63
2021-12-06T01:56:00,pth,4.80
2021-12-06T01:57:00,pth,1.17
2021-12-06T01:59:00,pth,3.57
2021-12-06T02:01:00,pth,4.80
2021-12-06T02:03:00,pth,3.63
2021-12-06T02:04:00,pth,2.40
2021-12-06T02:06:00,pth,3.57
2021-12-06T02:07:00,pth,2.40
2021-12-06T02:09:00,pth,4.80
2021-12-06T02:11:00,pth,3.63
2021-12-06T02:13:00,pth,3.57
2021-12-06T02:14:00,pth,2.40
2021-12-06T02:16:00,pth,3.57
2021-12-06T02:18:00,pth,4.80
2021-12-06T02:19:00,pth,1.23
2021-12-06T02:20:00,pth,2.40
2021-12-06T02:22:00,pth,3.57
2021-12-06T02:23:00,pth,2.40
2021-12-06T02:25:00,pth,3.63
2021-12-06T02:27:00,pth,4.75
2021-12-06T02:29:00,pth,3.63
2021-12-06T02:31:00,pth,3.57
2021-12-06T02:32:00,pth,2.40
2021-12-06T02:34:00,pth,3.63
2021-12-06T02:36:00,pth,3.57
2021-12-06T02:38:00,pth,4.80
2021-12-06T02:40:00,pth,3.63
2021-12-06T02:42:00,pth,3.57
2021-12-06T02:44:00,pth,4.80
2021-12-06T02:45:00,pth,1.17
2021-12-06T02:47:00,pth,4.80
2021-12-06T02:48:00,pth,1.23
2021-12-06T02:50:00,pth,3.57
2021-12-06T02:52:00,pth,4.80
2021-12-06T02:53:00,pth,1.23
2021-12-06T02:55:00,pth,3.57
2021-12-06T02:56:00,pth,2.40
2021-12-06T02:57:00,pth,2.40
2021-12-06T02:59:00,pth,3.57
2021-12-06T03:00:00,pth,2.40
2021-12-06T03:02:00,pth,3.63
2021-12-06T03:04:00,pth,3.57
2021-12-06T03:06:00,pth,3.63
2021-12-06T03:08:00,pth,3.57
2021-12-06T03:10:00,pth,3.63
2021-12-06T03:12:00,pth,4.80
2021-12-06T03:13:00,pth,2.34
2021-12-06T03:15:00,pth,3.63
2021-12-06T03:16:00,pth,2.40
2021-12-06T03:18:00,pth,3.57
2021-12-06T03:19:00,pth,2.40
2021-12-06T03:21:00,pth,3.63
2021-12-06T03:22:00,pth,2.40
2021-12-06T03:24:00,pth,3.57
2021-12-06T03:26:00,pth,3.63
2021-12-06T03:28:00,pth,4.75
2021-12-06T03:30:00,pth,3.63
2021-12-06T03:32:00,pth,3.57
2021-12-06T03:34:00,pth,4.80
2021-12-06T03:36:00,pth,3.63
2021-12-06T03:37:00,pth,2.40
2021-12-06T03:39:00,pth,3.57
2021-12-06T03:41:00,pth,3.63
2021-12-06T03:42:00,pth,2.40
2021-12-06T03:44:00,pth,3.57
2021-12-06T03:46:00,pth,4.80
2021-12-06T03:48:00,pth,3.57
2021-12-06T03:50:00,pth,3.63
2021-12-06T03:51:00,pth,2.40
2021-12-06T03:52:00,pth,1.17
2021-12-06T03:54:00,pth,4.80
2021-12-06T03:55:00,pth,1.23
2021-12-06T03:56:00,pth,2.40
2021-12-06T03:58:00,pth,3.57
2021-12-06T03:59:00,pth,2.40
2021-12-06T04:01:00,pth,3.57
2021-12-06T04:02:00,pth,1.23
2021-12-06T04:03:00,pth,2.40
2021-12-06T04:05:00,pth,3.57
2021-12-06T04:07:00,pth,3.63
2021-12-06T04:09:00,pth,4.80
2021-12-06T04:10:00,pth,1.17
2021-12-06T04:12:00,pth,3.63
2021-12-06T04:13:00,pth,2.40
2021-12-06T04:14:00,pth,2.34
2021-12-06T04:16:00,pth,3.63
2021-12-06T04:17:00,pth,1.17
2021-12-06T04:19:00,pth,3.63
2021-12-06T04:21:00,pth,3.57
2021-12-06T04:23:00,pth,3.63
2021-12-06T04:25:00,pth,4.80
2021-12-06T04:26:00,pth,1.17
2021-12-06T04:28:00,pth,3.63
2021-12-06T04:30:00,pth,4.75
2021-12-06T04:32:00,pth,3.63
2021-12-06T04:33:00,pth,2.40
2021-12-06T04:34:00,pth,1.17
2021-12-06T04:36:00,pth,3.63
2021-12-06T04:37:00,pth,2.40
2021-12-06T04:39:00,pth,3.57
2021-12-06T04:41:00,pth,3.63
2021-12-06T04:42:00,pth,1.17
2021-12-06T04:44:00,pth,4.80
2021-12-06T04:46:00,pth,3.57
2021-12-06T04:48:00,pth,3.63
2021-12-06T04:49:00,pth,1.17
2021-12-06T04:50:00,pth,2.40
2021-12-06T04:52:00,pth,3.63
2021-12-06T04:53:00,pth,2.40
2021-12-06T04:55:00,pth,3.57
2021-12-06T04:56:00,pth,1.23
2021-12-06T04:58:00,pth,4.80
2021-12-06T05:00:00,pth,3.57
2021-12-06T05:01:00,pth,1.23
2021-12-06T05:03:00,pth,4.75
2021-12-06T05:05:00,pth,3.63
2021-12-06T05:06:00,pth,1.17
2021-12-06T05:08:00,pth,3.63
2021-12-06T05:10:00,pth,4.80
2021-12-06T05:12:00,pth,3.57
2021-12-06T05:14:00,pth,3.63
2021-12-06T05:16:00,pth,3.57
2021-12-06T05:18:00,pth,4.80
2021-12-06T05:20:00,pth,3.57
2021-12-06T05:22:00,pth,3.63
2021-12-06T05:24:00,pth,3.57
2021-12-06T05:26:00,pth,3.63
2021-12-06T05:28:00,pth,3.57
2021-12-06T05:29:00,pth,2.40
2021-12-06T05:31:00,pth,4.80
2021-12-06T05:32:00,pth,1.23
2021-12-06T05:34:00,pth,4.75
2021-12-06T05:35:00,pth,1.23
2021-12-06T05:37:00,pth,4.80
2021-12-06T05:39:00,pth,3.57
2021-12-06T05:41:00,pth,3.63
2021-12-06T05:43:00,pth,3.57
2021-12-06T05:45:00,pth,4.80
2021-12-06T05:47:00,pth,3.63
2021-12-06T05:49:00,pth,3.57
2021-12-06T05:51:00,pth,3.57
2021-12-06T05:53:00,pth,4.80
2021-12-06T05:55:00,pth,4.80
2021-12-06T05:56:00,pth,1.23
2021-12-06T05:58:00,pth,3.57
2021-12-06T06:00:00,pth,3.63
2021-12-06T06:02:00,pth,3.57
2021-12-06T06:03:00,pth,2.40
2021-12-06T06:05:00,pth,3.57
2021-12-06T06:07:00,pth,3.63
2021-12-06T06:09:00,pth,3.57
2021-12-06T06:11:00,pth,3.63
2021-12-06T06:13:00,pth,4.80
2021-12-06T06:15:00,pth,3.57
2021-12-06T06:17:00,pth,3.63
2021-12-06T06:19:00,pth,3.57
2021-12-06T06:21:00,pth,3.57
2021-12-06T06:22:00,pth,2.40
2021-12-06T06:24:00,pth,3.63
2021-12-06T06:25:00,pth,2.40
2021-12-06T06:27:00,pth,3.57
2021-12-06T06:29:00,pth,3.63
2021-12-06T06:31:00,pth,3.57
2021-12-06T06:33:00,pth,3.63
2021-12-06T06:35:00,pth,3.57
2021-12-06T06:37:00,pth,3.57
2021-12-06T06:39:00,pth,3.63
2021-12-06T06:41:00,pth,3.57
2021-12-06T06:43:00,pth,3.63
2021-12-06T06:44:00,pth,2.40
2021-12-06T06:46:00,pth,3.57
2021-12-06T06:48:00,pth,3.63
2021-12-06T06:50:00,pth,3.57
2021-12-06T06:51:00,pth,2.40
2021-12-06T06:53:00,pth,3.57
2021-12-06T06:54:00,pth,2.40
2021-12-06T06:56:00,pth,3.63
2021-12-06T06:57:00,pth,2.40
2021-12-06T06:59:00,pth,3.57
2021-12-06T07:01:00,pth,3.63
2021-12-06T07:02:00,pth,2.40
2021-12-06T07:04:00,pth,3.57
2021-12-06T07:06:00,pth,3.63
2021-12-06T07:07:00,pth,2.34
2021-12-06T07:09:00,pth,3.63
2021-12-06T07:10:00,pth,2.40
2021-12-06T07:12:00,pth,4.80
2021-12-06T07:14:00,pth,3.57
2021-12-06T07:15:00,pth,2.40
2021-12-06T07:16:00,pth,1.23
2021-12-06T07:18:00,pth,4.80
2021-12-06T07:20:00,pth,3.57
2021-12-06T07:21:00,pth,2.40
2021-12-06T07:23:00,pth,4.80
2021-12-06T07:25:00,pth,3.57
2021-12-06T07:26:00,pth,2.40
2021-12-06T07:28:00,pth,4.80
2021-12-06T07:30:00,pth,3.63
2021-12-06T07:32:00,pth,4.80
2021-12-06T07:33:00,pth,2.40
2021-12-06T07:35:00,pth,3.57
2021-12-06T07:37:00,pth,5.98
2021-12-06T07:39:00,pth,4.80
2021-12-06T07:40:00,pth,2.40
2021-12-06T07:41:00,pth,2.40
2021-12-06T07:43:00,pth,4.80
2021-12-06T07:44:00,pth,2.40
2021-12-06T07:46:00,pth,4.80
2021-12-06T07:47:00,pth,2.40
2021-12-06T07:49:00,pth,4.80
2021-12-06T07:51:00,pth,4.80
2021-12-06T07:53:00,pth,4.80
2021-12-06T07:54:00,pth,2.40
2021-12-06T07:56:00,pth,4.80
2021-12-06T07:58:00,pth,4.80
2021-12-06T08:00:00,pth,4.75
2021-12-06T08:02:00,pth,4.80
2021-12-06T08:03:00,pth,2.40
2021-12-06T08:04:00,pth,2.40
2021-12-06T08:06:00,pth,4.80
2021-12-06T08:07:00,pth,7.21
2021-12-06T08:09:00,pth,15.59
2021-12-06T08:11:00,pth,14.41
2021-12-06T08:13:00,pth,15.59
2021-12-06T08:14:00,pth,7.21
2021-12-06T08:15:00,pth,7.21
2021-12-06T08:17:00,pth,15.59
2021-12-06T08:19:00,pth,14.41
2021-12-06T08:21:00,pth,14.41
2021-12-06T08:23:00,pth,14.41
2021-12-06T08:24:00,pth,7.21
2021-12-06T08:25:00,pth,8.38
2021-12-06T08:27:00,pth,14.41
2021-12-06T08:28:00,pth,7.21
2021-12-06T08:30:00,pth,14.36
2021-12-06T08:32:00,pth,14.41
2021-12-06T08:34:00,pth,10.78
2021-12-06T08:35:00,pth,7.21
2021-12-06T08:37:00,pth,9.61
2021-12-06T08:39:00,pth,12.01
2021-12-06T08:40:00,pth,4.80
2021-12-06T08:41:00,pth,7.21
2021-12-06T08:43:00,pth,9.61
2021-12-06T08:45:00,pth,10.78
2021-12-06T08:47:00,pth,13.18
2021-12-06T08:48:00,pth,2.40
2021-12-06T08:50:00,pth,12.01
2021-12-06T08:51:00,pth,3.57
2021-12-06T08:53:00,pth,12.01
2021-12-06T08:54:00,pth,3.63
2021-12-06T08:56:00,pth,10.78
2021-12-06T08:57:00,pth,2.40
2021-12-06T08:59:00,pth,3.57
2021-12-06T09:01:00,pth,4.80
2021-12-06T09:02:00,pth,2.40
2021-12-06T09:04:00,pth,3.63
2021-12-06T09:05:00,pth,2.40
2021-12-06T09:07:00,pth,3.57
2021-12-06T09:08:00,pth,2.40
2021-12-06T09:10:00,pth,4.80
2021-12-06T09:11:00,pth,1.17
2021-12-06T09:13:00,pth,4.80
2021-12-06T09:15:00,pth,3.63
2021-12-06T09:17:00,pth,3.57
2021-12-06T09:18:00,pth,1.23
2021-12-06T09:20:00,pth,3.57
2021-12-06T09:22:00,pth,3.63
2021-12-06T09:24:00,pth,2.34
2021-12-06T09:26:00,pth,3.63
2021-12-06T09:28:00,pth,3.57
2021-12-06T09:29:00,pth,2.40
2021-12-06T09:31:00,pth,3.63
2021-12-06T09:33:00,pth,3.57
2021-12-06T09:35:00,pth,3.63
2021-12-06T09:37:00,pth,3.57
2021-12-06T09:39:00,pth,2.40
2021-12-06T09:41:00,pth,4.80
2021-12-06T09:43:00,pth,3.57
2021-12-06T09:45:00,pth,3.63
2021-12-06T09:47:00,pth,3.57
2021-12-06T09:49:00,pth,4.80
2021-12-06T09:51:00,pth,3.63
2021-12-06T09:52:00,pth,1.17
2021-12-06T09:54:00,pth,3.63
2021-12-06T09:56:00,pth,3.57
2021-12-06T09:58:00,pth,3.57
2021-12-06T10:00:00,pth,3.63
2021-12-06T10:02:00,pth,3.57
2021-12-06T10:03:00,pth,2.40
2021-12-06T10:05:00,pth,3.63
2021-12-06T10:07:00,pth,2.40
2021-12-06T10:09:00,pth,3.57
2021-12-06T10:11:00,pth,3.63
2021-12-06T10:13:00,pth,3.57
2021-12-06T10:15:00,pth,2.40
2021-12-06T10:16:00,pth,2.40
2021-12-06T10:18:00,pth,2.40
2021-12-06T10:20:00,pth,3.57
2021-12-06T10:22:00,pth,3.63
2021-12-06T10:24:00,pth,3.57
2021-12-06T10:26:00,pth,3.63
2021-12-06T10:28:00,pth,2.40
2021-12-06T10:29:00,pth,2.40
2021-12-06T10:31:00,pth,3.57
2021-12-06T10:33:00,pth,2.40
2021-12-06T10:34:00,pth,1.17
2021-12-06T10:35:00,pth,2.40
2021-12-06T10:36:00,pth,1.23
2021-12-06T10:38:00,pth,2.40
2021-12-06T10:40:00,pth,3.57
2021-12-06T10:41:00,pth,1.23
2021-12-06T10:43:00,pth,3.57
2021-12-06T10:45:00,pth,3.63
2021-12-06T10:47:00,pth,3.57
2021-12-06T10:48:00,pth,1.23
2021-12-06T10:50:00,pth,3.57
2021-12-06T10:52:00,pth,2.40
2021-12-06T10:54:00,pth,3.57
2021-12-06T10:56:00,pth,3.63
2021-12-06T10:58:00,pth,2.40
2021-12-06T10:59:00,pth,2.40
2021-12-06T11:00:00,pth,1.17
2021-12-06T11:02:00,pth,3.63
2021-12-06T11:03:00,pth,1.17
2021-12-06T11:05:00,pth,3.63
2021-12-06T11:07:00,pth,3.57
2021-12-06T11:08:00,pth,1.23
2021-12-06T11:10:00,pth,3.57
2021-12-06T11:11:00,pth,2.40
2021-12-06T11:13:00,pth,3.57
2021-12-06T11:15:00,pth,3.63
2021-12-06T11:17:00,pth,3.57
2021-12-06T11:19:00,pth,3.63
2021-12-06T11:20:00,pth,1.17
2021-12-06T11:22:00,pth,3.63
2021-12-06T11:24:00,pth,3.57
2021-12-06T11:26:00,pth,2.40
2021-12-06T11:27:00,pth,1.17
2021-12-06T11:29:00,pth,3.63
2021-12-06T11:30:00,pth,1.17
2021-12-06T11:32:00,pth,3.63
2021-12-06T11:34:00,pth,3.57
2021-12-06T11:35:00,pth,2.40
2021-12-06T11:37:00,pth,3.63
2021-12-06T11:39:00,pth,3.57
2021-12-06T11:40:00,pth,2.40
2021-12-06T11:41:00,pth,2.40
2021-12-06T11:43:00,pth,4.80
2021-12-06T11:45:00,pth,4.80
2021-12-06T11:46:00,pth,1.17
2021-12-06T11:48:00,pth,4.80
2021-12-06T11:50:00,pth,3.63
2021-12-06T11:52:00,pth,3.57
2021-12-06T11:54:00,pth,3.63
2021-12-06T11:55:00,pth,1.17
2021-12-06T11:57:00,pth,3.63
2021-12-06T11:59:00,pth,3.57
2021-12-06T12:01:00,pth,3.57
2021-12-06T12:02:00,pth,2.40
2021-12-06T12:03:00,pth,1.23
2021-12-06T12:04:00,pth,2.40
2021-12-06T12:06:00,pth,3.57
2021-12-06T12:08:00,pth,3.63
2021-12-06T12:10:00,pth,3.57
2021-12-06T12:12:00,pth,3.63
2021-12-06T12:14:00,pth,2.40
2021-12-06T12:15:00,pth,2.34
2021-12-06T12:17:00,pth,3.63
2021-12-06T12:19:00,pth,3.57
2021-12-06T12:21:00,pth,3.63
2021-12-06T12:23:00,pth,2.40
2021-12-06T12:25:00,pth,3.57
2021-12-06T12:27:00,pth,3.63
2021-12-06T12:29:00,pth,3.57
2021-12-06T12:31:00,pth,2.40
2021-12-06T12:33:00,pth,3.57
2021-12-06T12:35:00,pth,3.63
2021-12-06T12:37:00,pth,3.57
2021-12-06T12:39:00,pth,3.63
2021-12-06T12:41:00,pth,3.57
2021-12-06T12:43:00,pth,2.40
2021-12-06T12:45:00,pth,3.63
2021-12-06T12:47:00,pth,3.57
2021-12-06T12:48:00,pth,1.23
2021-12-06T12:50:00,pth,4.75
2021-12-06T12:51:00,pth,1.23
2021-12-06T12:53:00,pth,3.57
2021-12-06T12:54:00,pth,1.23
2021-12-06T12:56:00,pth,2.40
2021-12-06T12:58:00,pth,3.57
2021-12-06T12:59:00,pth,1.23
2021-12-06T13:00:00,pth,2.40
2021-12-06T13:02:00,pth,2.40
2021-12-06T13:03:00,pth,2.40
2021-12-06T13:05:00,pth,3.57
2021-12-06T13:07:00,pth,2.40
2021-12-06T13:09:00,pth,3.57
2021-12-06T13:10:00,pth,1.23
2021-12-06T13:12:00,pth,3.57
2021-12-06T13:13:00,pth,2.40
2021-12-06T13:15:00,pth,2.40
2021-12-06T13:17:00,pth,3.63
2021-12-06T13:18:00,pth,2.40
2021-12-06T13:20:00,pth,2.40
2021-12-06T13:22:00,pth,3.57
2021-12-06T13:24:00,pth,3.63
2021-12-06T13:26:00,pth,3.57
2021-12-06T13:27:00,pth,2.40
2021-12-06T13:29:00,pth,2.40
2021-12-06T13:31:00,pth,3.57
2021-12-06T13:32:00,pth,2.40
2021-12-06T13:34:00,pth,3.63
2021-12-06T13:36:00,pth,3.57
2021-12-06T13:38:00,pth,2.40
2021-12-06T13:39:00,pth,2.40
2021-12-06T13:41:00,pth,3.63
2021-12-06T13:43:00,pth,3.57
2021-12-06T13:45:00,pth,3.57
2021-12-06T13:47:00,pth,4.80
2021-12-06T13:49:00,pth,3.63
2021-12-06T13:51:00,pth,3.57
2021-12-06T13:52:00,pth,2.40
2021-12-06T13:54:00,pth,3.63
2021-12-06T13:56:00,pth,2.40
2021-12-06T13:57:00,pth,2.40
2021-12-06T13:59:00,pth,3.57
2021-12-06T14:00:00,pth,2.40
2021-12-06T14:02:00,pth,3.57
2021-12-06T14:03:00,pth,1.23
2021-12-06T14:04:00,pth,2.40
2021-12-06T14:06:00,pth,2.40
2021-12-06T14:08:00,pth,3.57
2021-12-06T14:09:00,pth,2.40
2021-12-06T14:11:00,pth,2.40
2021-12-06T14:13:00,pth,3.63
2021-12-06T14:15:00,pth,3.57
2021-12-06T14:17:00,pth,3.57
2021-12-06T14:19:00,pth,3.63
2021-12-06T14:21:00,pth,2.40
2021-12-06T14:23:00,pth,3.57
2021-12-06T14:24:00,pth,2.40
2021-12-06T14:25:00,pth,1.23
2021-12-06T14:27:00,pth,4.80
2021-12-06T14:28:00,pth,2.40
2021-12-06T14:30:00,pth,3.57
2021-12-06T14:32:00,pth,5.98
2021-12-06T14:34:00,pth,4.80
2021-12-06T14:36:00,pth,6.04
2021-12-06T14:38:00,pth,4.80
2021-12-06T14:40:00,pth,4.80
2021-12-06T14:42:00,pth,4.80
2021-12-06T14:43:00,pth,2.40
2021-12-06T14:45:00,pth,4.75
2021-12-06T14:46:00,pth,2.40
2021-12-06T14:48:00,pth,4.80
2021-12-06T14:50:00,pth,4.80
2021-12-06T14:52:00,pth,6.04
2021-12-06T14:54:00,pth,5.98
2021-12-06T14:56:00,pth,4.80
2021-12-06T14:58:00,pth,5.98
2021-12-06T14:59:00,pth,2.40
2021-12-06T15:01:00,pth,6.04
2021-12-06T15:02:00,pth,2.40
2021-12-06T15:04:00,pth,4.80
2021-12-06T15:06:00,pth,3.57
2021-12-06T15:08:00,pth,4.80
2021-12-06T15:10:00,pth,5.98
2021-12-06T15:12:00,pth,4.80
2021-12-06T15:13:00,pth,2.40
2021-12-06T15:15:00,pth,4.80
2021-12-06T15:17:00,pth,14.41
2021-12-06T15:19:00,pth,14.41
2021-12-06T15:20:00,pth,7.21
2021-12-06T15:21:00,pth,8.38
2021-12-06T15:23:00,pth,14.41
2021-12-06T15:25:00,pth,14.36
2021-12-06T15:26:00,pth,8.44
2021-12-06T15:28:00,pth,14.41
2021-12-06T15:30:00,pth,14.36
2021-12-06T15:32:00,pth,15.64
2021-12-06T15:34:00,pth,14.36
2021-12-06T15:35:00,pth,7.21
2021-12-06T15:37:00,pth,15.59
2021-12-06T15:38:00,pth,7.21
2021-12-06T15:40:00,pth,15.64
2021-12-06T15:42:00,pth,14.36
2021-12-06T15:44:00,pth,15.64
2021-12-06T15:46:00,pth,15.59
2021-12-06T15:48:00,pth,14.41
2021-12-06T15:50:00,pth,14.36
2021-12-06T15:52:00,pth,8.44
2021-12-06T15:54:00,pth,15.59
2021-12-06T15:55:00,pth,7.21
2021-12-06T15:57:00,pth,7.21
2021-12-06T15:59:00,pth,15.59
2021-12-06T16:01:00,pth,7.21
2021-12-06T16:02:00,pth,8.38
2021-12-06T16:03:00,pth,7.21
2021-12-06T16:05:00,pth,8.38
2021-12-06T16:06:00,pth,6.04
2021-12-06T16:08:00,pth,14.41
2021-12-06T16:09:00,pth,2.40
2021-12-06T16:11:00,pth,13.18
2021-12-06T16:13:00,pth,9.61
2021-12-06T16:15:00,pth,7.21
2021-12-06T16:17:00,pth,4.75
2021-12-06T16:18:00,pth,2.40
2021-12-06T16:19:00,pth,2.40
2021-12-06T16:21:00,pth,6.04
2021-12-06T16:23:00,pth,7.21
2021-12-06T16:25:00,pth,7.21
2021-12-06T16:26:00,pth,3.57
2021-12-06T16:28:00,pth,4.80
2021-12-06T16:30:00,pth,4.80
2021-12-06T16:32:00,pth,3.57
2021-12-06T16:34:00,pth,6.04
2021-12-06T16:36:00,pth,3.57
2021-12-06T16:38:00,pth,4.80
2021-12-06T16:39:00,pth,2.40
2021-12-06T16:41:00,pth,4.80
2021-12-06T16:43:00,pth,4.80
2021-12-06T16:45:00,pth,3.57
2021-12-06T16:47:00,pth,4.80
2021-12-06T16:48:00,pth,2.40
2021-12-06T16:50:00,pth,3.63
2021-12-06T16:52:00,pth,4.75
2021-12-06T16:54:00,pth,4.80
2021-12-06T16:55:00,pth,2.40
2021-12-06T16:56:00,pth,2.40
2021-12-06T16:58:00,pth,4.80
2021-12-06T17:00:00,pth,4.80
2021-12-06T17:02:00,pth,4.80
2021-12-06T17:03:00,pth,2.40
2021-12-06T17:05:00,pth,7.21
2021-12-06T17:07:00,pth,4.80
2021-12-06T17:08:00,pth,2.40
2021-12-06T17:10:00,pth,5.98
2021-12-06T17:12:00,pth,4.80
2021-12-06T17:13:00,pth,2.40
2021-12-06T17:15:00,pth,3.63
2021-12-06T17:17:00,pth,4.75
2021-12-06T17:18:00,pth,2.40
2021-12-06T17:20:00,pth,4.80
2021-12-06T17:21:00,pth,2.40
2021-12-06T17:23:00,pth,3.63
2021-12-06T17:25:00,pth,4.80
2021-12-06T17:26:00,pth,2.40
2021-12-06T17:28:00,pth,5.98
2021-12-06T17:30:00,pth,4.80
2021-12-06T17:31:00,pth,3.57
2021-12-06T17:33:00,pth,4.80
2021-12-06T17:35:00,pth,4.80
2021-12-06T17:37:00,pth,3.63
2021-12-06T17:39:00,pth,5.98
2021-12-06T17:40:00,pth,2.40
2021-12-06T17:42:00,pth,3.57
2021-12-06T17:43:00,pth,2.40
2021-12-06T17:45:00,pth,4.80
2021-12-06T17:47:00,pth,4.80
2021-12-06T17:48:00,pth,2.40
2021-12-06T17:50:00,pth,4.80
2021-12-06T17:51:00,pth,2.40
2021-12-06T17:52:00,pth,2.40
2021-12-06T17:54:00,pth,5.98
2021-12-06T17:56:00,pth,3.63
2021-12-06T17:57:00,pth,2.40
2021-12-06T17:59:00,pth,4.80
2021-12-06T18:00:00,pth,2.40
2021-12-06T18:02:00,pth,4.80
2021-12-06T18:04:00,pth,4.80
2021-12-06T18:06:00,pth,3.57
2021-12-06T18:08:00,pth,4.80
2021-12-06T18:10:00,pth,4.80
2021-12-06T18:12:00,pth,3.57
2021-12-06T18:14:00,pth,4.80
2021-12-06T18:15:00,pth,2.40
2021-12-06T18:17:00,pth,4.80
2021-12-06T18:18:00,pth,1.23
2021-12-06T18:20:00,pth,4.75
2021-12-06T18:22:00,pth,4.80
2021-12-06T18:24:00,pth,4.80
2021-12-06T18:25:00,pth,2.40
2021-12-06T18:27:00,pth,3.63
2021-12-06T18:29:00,pth,4.80
2021-12-06T18:31:00,pth,4.80
2021-12-06T18:32:00,pth,1.17
2021-12-06T18:34:00,pth,4.80
2021-12-06T18:35:00,pth,2.40
2021-12-06T18:37:00,pth,4.80
2021-12-06T18:39:00,pth,3.57
2021-12-06T18:40:00,pth,2.40
2021-12-06T18:42:00,pth,4.80
2021-12-06T18:44:00,pth,3.63
2021-12-06T18:46:00,pth,4.80
2021-12-06T18:48:00,pth,3.57
2021-12-06T18:50:00,pth,4.80
2021-12-06T18:52:00,pth,4.80
2021-12-06T18:54:00,pth,3.57
2021-12-06T18:56:00,pth,4.80
2021-12-06T18:58:00,pth,3.63
2021-12-06T18:59:00,pth,2.40
2021-12-06T19:01:00,pth,4.75
2021-12-06T19:02:00,pth,2.40
2021-12-06T19:04:00,pth,4.80
2021-12-06T19:06:00,pth,3.63
2021-12-06T19:08:00,pth,4.80
2021-12-06T19:10:00,pth,4.80
2021-12-06T19:11:00,pth,2.40
2021-12-06T19:13:00,pth,4.80
2021-12-06T19:15:00,pth,4.75
2021-12-06T19:17:00,pth,3.63
2021-12-06T19:19:00,pth,4.80
2021-12-06T19:20:00,pth,2.40
2021-12-06T19:21:00,pth,2.40
2021-12-06T19:23:00,pth,4.80
2021-12-06T19:24:00,pth,1.17
2021-12-06T19:26:00,pth,4.80
2021-12-06T19:27:00,pth,2.40
2021-12-06T19:29:00,pth,4.80
2021-12-06T19:31:00,pth,4.80
2021-12-06T19:33:00,pth,3.57
2021-12-06T19:35:00,pth,4.80
2021-12-06T19:37:00,pth,4.80
2021-12-06T19:39:00,pth,4.80
2021-12-06T19:40:00,pth,2.40
2021-12-06T19:42:00,pth,3.57
2021-12-06T19:43:00,pth,2.40
2021-12-06T19:45:00,pth,4.80
2021-12-06T19:47:00,pth,4.80
2021-12-06T19:49:00,pth,3.63
2021-12-06T19:51:00,pth,4.80
2021-12-06T19:52:00,pth,2.40
2021-12-06T19:54:00,pth,5.98
2021-12-06T19:56:00,pth,4.80
2021-12-06T19:58:00,pth,4.80
2021-12-06T20:00:00,pth,4.80
2021-12-06T20:01:00,pth,2.40
2021-12-06T20:03:00,pth,4.80
2021-12-06T20:05:00,pth,4.80
2021-12-06T20:06:00,pth,2.34
2021-12-06T20:07:00,pth,2.40
2021-12-06T20:09:00,pth,4.80
2021-12-06T20:11:00,pth,4.80
2021-12-06T20:13:00,pth,4.80
2021-12-06T20:14:00,pth,2.40
2021-12-06T20:16:00,pth,4.80
2021-12-06T20:18:00,pth,4.80
2021-12-06T20:20:00,pth,4.80
2021-12-06T20:21:00,pth,1.17
2021-12-06T20:23:00,pth,4.80
2021-12-06T20:24:00,pth,2.40
2021-12-06T20:26:00,pth,4.80
2021-12-06T20:28:00,pth,4.80
2021-12-06T20:29:00,pth,2.40
2021-12-06T20:31:00,pth,3.63
2021-12-06T20:32:00,pth,2.34
2021-12-06T20:34:00,pth,4.80
2021-12-06T20:36:00,pth,3.63
2021-12-06T20:37:00,pth,2.40
2021-12-06T20:39:00,pth,4.80
2021-12-06T20:41:00,pth,4.80
2021-12-06T20:43:00,pth,3.57
2021-12-06T20:44:00,pth,3.63
2021-12-06T20:45:00,pth,2.34
2021-12-06T20:47:00,pth,3.63
2021-12-06T20:49:00,pth,4.80
2021-12-06T20:51:00,pth,4.80
2021-12-06T20:52:00,pth,2.40
2021-12-06T20:54:00,pth,5.98
2021-12-06T20:55:00,pth,2.40
2021-12-06T20:56:00,pth,2.40
2021-12-06T20:58:00,pth,4.80
2021-12-06T21:00:00,pth,4.80
2021-12-06T21:01:00,pth,2.40
2021-12-06T21:03:00,pth,5.98
2021-12-06T21:04:00,pth,2.40
2021-12-06T21:06:00,pth,4.80
2021-12-06T21:08:00,pth,4.80
2021-12-06T21:09:00,pth,2.40
2021-12-06T21:11:00,pth,4.80
2021-12-06T21:13:00,pth,5.98
2021-12-06T21:15:00,pth,4.80
2021-12-06T21:17:00,pth,4.80
2021-12-06T21:18:00,pth,2.40
2021-12-06T21:20:00,pth,6.04
2021-12-06T21:21:00,pth,2.34
2021-12-06T21:23:00,pth,7.21
2021-12-06T21:25:00,pth,4.80
2021-12-06T21:26:00,pth,3.63
2021-12-06T21:28:00,pth,4.80
2021-12-06T21:30:00,pth,4.80
2021-12-06T21:31:00,pth,3.57
2021-12-06T21:32:00,pth,3.57
2021-12-06T21:34:00,pth,4.80
2021-12-06T21:36:00,pth,6.04
2021-12-06T21:37:00,pth,4.80
2021-12-06T21:39:00,pth,7.21
2021-12-06T21:40:00,pth,2.40
2021-12-06T21:41:00,pth,3.57
2021-12-06T21:43:00,pth,4.80
2021-12-06T21:45:00,pth,5.98
2021-12-06T21:47:00,pth,6.04
2021-12-06T21:48:00,pth,2.40
2021-12-06T21:50:00,pth,7.21
2021-12-06T21:52:00,pth,7.15
2021-12-06T21:53:00,pth,2.40
2021-12-06T21:55:00,pth,4.80
2021-12-06T21:57:00,pth,6.04
2021-12-06T21:59:00,pth,13.18
2021-12-06T22:01:00,pth,15.59
2021-12-06T22:03:00,pth,16.82
2021-12-06T22:04:00,pth,9.61
2021-12-06T22:06:00,pth,17.99
2021-12-06T22:08:00,pth,17.99
2021-12-06T22:10:00,pth,17.99
2021-12-06T22:12:00,pth,15.64
2021-12-06T22:14:00,pth,16.76
2021-12-06T22:16:00,pth,15.64
2021-12-06T22:18:00,pth,15.59
2021-12-06T22:20:00,pth,16.82
2021-12-06T22:21:00,pth,8.38
2021-12-06T22:23:00,pth,15.59
2021-12-06T22:25:00,pth,16.82
2021-12-06T22:26:00,pth,8.38
2021-12-06T22:28:00,pth,15.59
2021-12-06T22:30:00,pth,16.82
2021-12-06T22:32:00,pth,15.59
2021-12-06T22:34:00,pth,15.64
2021-12-06T22:36:00,pth,15.59
2021-12-06T22:38:00,pth,15.59
2021-12-06T22:40:00,pth,16.82
2021-12-06T22:41:00,pth,8.38
2021-12-06T22:43:00,pth,15.59
2021-12-06T22:45:00,pth,15.64
2021-12-06T22:47:00,pth,15.59
2021-12-06T22:49:00,pth,16.82
2021-12-06T22:51:00,pth,8.38
2021-12-06T22:52:00,pth,7.21
2021-12-06T22:54:00,pth,12.01
2021-12-06T22:55:00,pth,2.40
2021-12-06T22:56:00,pth,3.57
2021-12-06T22:58:00,pth,4.80
2021-12-06T22:59:00,pth,2.40
2021-12-06T23:01:00,pth,4.80
2021-12-06T23:03:00,pth,4.80
2021-12-06T23:05:00,pth,4.80
2021-12-06T23:07:00,pth,4.80
2021-12-06T23:08:00,pth,2.40
2021-12-06T23:10:00,pth,4.80
2021-12-06T23:12:00,pth,3.57
